EW7906 Weather Reports


Display with metric or nautical units.
time (UTC)temp
F
wind
direction
speed
MPH
gust
MPH
rain 1hr
in
rain 24hr
in
rain mn
in
humidity
%
barometer
mb
20260901190946 150 150 2.0 8.0 0.00 0.00 0.00 100 1014.5
20260901190445 149 167 4.0 8.0 0.00 0.00 0.00 100 1014.6
20260901185943 149 355 1.0 6.0 0.00 0.00 0.00 100 1014.6
20260901185656 149 18 2.0 8.0 0.00 0.00 0.00 100 1014.7
20260901185133 149 167 0.0 6.0 0.00 0.00 0.00 100 1014.9
20260901184402 148 81 0.0 6.0 0.00 0.00 0.00 100 1015.0
20260901183857 148 147 3.0 6.0 0.00 0.00 0.00 100 1015.1
20260901183357 149 14 1.0 6.0 0.00 0.00 0.00 100 1015.1
20260901182857 148 149 0.0 6.0 0.00 0.00 0.00 100 1015.2
20260901182355 148 67 2.0 6.0 0.00 0.00 0.00 100 1015.4
20260901181856 149 120 0.0 6.0 0.00 0.00 0.00 100 1015.4
20260901181357 149 70 0.0 6.0 0.00 0.00 0.00 100 1015.6
20260901180844 149 129 1.0 6.0 0.00 0.00 0.00 100 1015.7
20260901180343 149 135 2.0 6.0 0.00 0.00 0.00 100 1015.7
20260901175838 149 118 0.0 6.0 0.00 0.00 0.00 100 1015.8
20260901175327 148 142 0.0 8.0 0.00 0.00 0.00 100 1015.9
20260901174827 149 133 1.0 8.0 0.00 0.00 0.00 100 1016.0
20260901174325 149 109 1.0 8.0 0.00 0.00 0.00 100 1016.0
20260901173820 149 81 2.0 8.0 0.00 0.00 0.00 100 1016.2
20260901173317 149 73 2.0 8.0 0.00 0.00 0.00 100 1016.3
20260901172808 148 113 1.0 6.0 0.00 0.00 0.00 100 1016.4
20260901172308 148 143 0.0 6.0 0.00 0.00 0.00 100 1016.4
20260901172027 149 149 0.0 7.0 0.00 0.00 0.00 100 1016.5
20260901171256 149 66 0.0 8.0 0.00 0.00 0.00 100 1016.5
20260901170757 149 142 0.0 8.0 0.00 0.00 0.00 100 1016.6
20260901170256 149 25 2.0 7.0 0.00 0.00 0.00 100 1016.6
20260901165749 148 122 0.0 5.0 0.00 0.00 0.00 100 1016.7
20260901165242 148 116 1.0 6.0 0.00 0.00 0.00 100 1016.8
20260901164718 148 150 3.0 6.0 0.00 0.00 0.00 100 1016.9
20260901164218 148 150 0.0 5.0 0.00 0.00 0.00 100 1016.8
20260901163939 149 150 3.0 7.0 0.00 0.00 0.00 100 1016.8
20260901163208 148 198 0.0 7.0 0.00 0.00 0.00 100 1016.7
20260901162708 148 118 0.0 3.0 0.00 0.00 0.00 100 1016.9
20260901162158 148 113 0.0 3.0 0.00 0.00 0.00 100 1017.0
20260901161633 148 113 1.0 4.0 0.00 0.00 0.00 100 1017.1
20260901161111 148 157 0.0 6.0 0.00 0.00 0.00 100 1017.1
20260901160547 148 157 2.0 6.0 0.00 0.00 0.00 100 1017.1
20260901160042 148 345 0.0 3.0 0.00 0.00 0.00 100 1017.0
20260901155536 147 104 0.0 5.0 0.00 0.00 0.00 100 1017.0
20260901155035 147 104 0.0 5.0 0.00 0.00 0.00 100 1017.0
20260901154508 147 188 0.0 4.0 0.00 0.00 0.00 100 1017.0
20260901154222 147 168 3.0 4.0 0.00 0.00 0.00 100 1017.0
20260901153429 147 4 0.0 1.0 0.00 0.00 0.00 100 1017.0
20260901153137 147 18 0.0 0.0 0.00 0.00 0.00 100 1017.0
20260901152357 147 18 0.0 5.0 0.00 0.00 0.00 100 1017.0
20260901151852 147 18 0.0 5.0 0.00 0.00 0.00 100 1016.9
20260901151347 146 336 1.0 4.0 0.00 0.00 0.00 100 1016.9
20260901150846 146 213 0.0 5.0 0.00 0.00 0.00 100 1017.0
20260901150615 146 213 1.0 5.0 0.00 0.00 0.00 100 1016.9
20260901150450 146 302 0.0 4.0 0.00 0.00 0.00 100 1017.0
20260901145604 145 289 0.0 3.0 0.00 0.00 0.00 100 1016.9
20260901145043 145 289 1.0 3.0 0.00 0.00 0.00 100 1016.9
20260901144307 145 295 0.0 2.0 0.00 0.00 0.00 100 1017.0
20260901143743 145 320 0.0 0.0 0.00 0.00 0.00 100 1017.0
20260901143240 145 320 0.0 0.0 0.00 0.00 0.00 100 1017.0
20260901142723 145 320 0.0 0.0 0.00 0.00 0.00 100 1017.0
20260901142203 145 320 0.0 3.0 0.00 0.00 0.00 100 1017.1
20260901141700 145 320 0.0 5.0 0.00 0.00 0.00 100 1017.2
20260901141157 145 315 0.0 5.0 0.00 0.00 0.00 100 1017.2
20260901140656 145 119 1.0 5.0 0.00 0.00 0.00 100 1017.2
20260901140158 145 1 3.0 5.0 0.00 0.00 0.00 100 1017.2
20260901135652 145 147 0.0 5.0 0.00 0.00 0.00 100 1017.2
20260901135145 144 153 2.0 5.0 0.00 0.00 0.00 100 1017.2
20260901134641 144 2 1.0 5.0 0.00 0.00 0.00 100 1017.1
20260901134401 144 188 0.0 5.0 0.00 0.00 0.00 100 1017.0
20260901133630 144 142 0.0 5.0 0.00 0.00 0.00 100 1017.0
20260901133131 144 223 0.0 3.0 0.00 0.00 0.00 100 1016.9
20260901132858 144 219 0.0 4.0 0.00 0.00 0.00 100 1016.8
20260901132126 144 219 2.0 4.0 0.00 0.00 0.00 100 1016.8
20260901131612 143 180 0.0 0.0 0.00 0.00 0.00 1 1016.9
20260901131108 143 180 0.0 0.0 0.00 0.00 0.00 4 1016.8
20260901130806 143 180 0.0 0.0 0.00 0.00 0.00 11 1016.8
20260901130037 143 180 0.0 0.0 0.00 0.00 0.00 19 1016.7
20260901125526 143 180 0.0 0.0 0.00 0.00 0.00 19 1016.6
20260901125258 143 180 0.0 0.0 0.00 0.00 0.00 18 1016.6
20260901124755 143 180 0.0 0.0 0.00 0.00 0.00 17 1016.6
20260901124005 143 180 0.0 0.0 0.00 0.00 0.00 13 1016.5
20260901123459 143 180 0.0 0.0 0.00 0.00 0.00 10 1016.5
20260901122959 143 180 0.0 0.0 0.00 0.00 0.00 7 1016.5
20260901122718 143 180 0.0 0.0 0.00 0.00 0.00 7 1016.4
20260901121924 143 180 0.0 0.0 0.00 0.00 0.00 6 1016.4
20260901121633 143 180 0.0 0.0 0.00 0.00 0.00 5 1016.3
20260901120856 143 180 0.0 0.0 0.00 0.00 0.00 4 1016.3
20260901120349 143 180 0.0 0.0 0.00 0.00 0.00 4 1016.3
20260901120112 143 180 0.0 0.0 0.00 0.00 0.00 3 1016.3
20260901115342 143 180 0.0 0.0 0.00 0.00 0.00 2 1016.4
20260901115058 143 180 0.0 0.0 0.00 0.00 0.00 2 1016.3
20260901114328 143 180 0.0 0.0 0.00 0.00 0.00 1 1016.3
20260901113819 143 180 0.0 0.0 0.00 0.00 0.00 100 1016.3
20260901113545 143 180 0.0 0.0 0.00 0.00 0.00 100 1016.3
20260901112813 143 180 0.0 0.0 0.00 0.00 0.00 100 1016.3
20260901112531 143 180 0.0 0.0 0.00 0.00 0.00 100 1016.2
20260901111739 143 180 0.0 0.0 0.00 0.00 0.00 100 1016.2
20260901111217 143 180 0.0 0.0 0.00 0.00 0.00 100 1016.1
20260901110715 143 180 0.0 0.0 0.00 0.00 0.00 100 1016.1
20260901110211 143 180 0.0 3.0 0.00 0.00 0.00 100 1016.2
20260901105701 143 180 0.0 3.0 0.00 0.00 0.00 100 1016.2
20260901105159 143 203 0.0 0.0 0.00 0.00 0.00 100 1016.1
20260901104659 143 203 0.0 3.0 0.00 0.00 0.00 100 1016.1
20260901104150 143 203 0.0 3.0 0.00 0.00 0.00 100 1016.1
20260901103648 143 230 0.0 0.0 0.00 0.00 0.00 100 1016.0
20260901103128 143 230 0.0 4.0 0.00 0.00 0.00 100 1016.0
20260901102603 143 230 1.0 4.0 0.00 0.00 0.00 100 1016.0
20260901102329 143 192 0.0 0.0 0.00 0.00 0.00 100 1016.0
20260901101557 143 192 0.0 0.0 0.00 0.00 0.00 100 1015.9
20260901101043 143 192 0.0 0.0 0.00 0.00 0.00 100 1015.9
20260901100519 143 192 0.0 0.0 0.00 0.00 0.00 100 1015.9
20260901095958 143 192 0.0 0.0 0.00 0.00 0.00 100 1015.9
20260901095442 144 192 0.0 0.0 0.00 0.00 0.00 100 1016.0
20260901094929 144 192 0.0 0.0 0.00 0.00 0.00 100 1016.1
20260901094659 143 192 0.0 0.0 0.00 0.00 0.00 100 1016.1
20260901093911 144 192 0.0 2.0 0.00 0.00 0.00 100 1016.2
20260901093409 144 192 0.0 2.0 0.00 0.00 0.00 100 1016.3
20260901092833 144 160 0.0 0.0 0.00 0.00 0.00 100 1016.3
20260901092311 144 160 0.0 0.0 0.00 0.00 0.00 100 1016.3
20260901091759 144 160 0.0 0.0 0.00 0.00 0.00 100 1016.2
20260901091238 144 160 0.0 0.0 0.00 0.00 0.00 100 1016.3
20260901090715 144 160 0.0 0.0 0.00 0.00 0.00 100 1016.2
20260901090447 144 160 0.0 0.0 0.00 0.00 0.00 100 1016.1
20260901085701 144 160 0.0 0.0 0.00 0.00 0.00 100 1016.1
20260901085156 144 160 0.0 0.0 0.00 0.00 0.00 100 1016.0
20260901084637 144 160 0.0 0.0 0.00 0.00 0.00 100 1016.0
20260901084134 144 160 0.0 0.0 0.00 0.00 0.00 100 1016.1
20260901083616 144 160 0.0 0.0 0.00 0.00 0.00 100 1016.1
20260901083114 144 160 0.0 0.0 0.00 0.00 0.00 100 1016.0
20260901082612 144 160 0.0 0.0 0.00 0.00 0.00 100 1016.0
20260901082110 144 160 0.0 0.0 0.00 0.00 0.00 100 1016.1
20260901081552 144 160 0.0 0.0 0.00 0.00 0.00 100 1016.1
20260901081034 144 160 0.0 0.0 0.00 0.00 0.00 100 1016.1
20260901080534 144 160 0.0 0.0 0.00 0.00 0.00 100 1016.2
20260901080020 144 160 0.0 0.0 0.00 0.00 0.00 100 1016.2
20260901075516 144 160 0.0 0.0 0.00 0.00 0.00 100 1016.2
20260901074944 144 160 0.0 0.0 0.00 0.00 0.00 100 1016.2
20260901074702 144 160 0.0 0.0 0.00 0.00 0.00 100 1016.2
20260901073926 144 160 0.0 0.0 0.00 0.00 0.00 100 1016.2
20260901073427 144 160 0.0 0.0 0.00 0.00 0.00 100 1016.3
20260901072857 144 160 0.0 3.0 0.00 0.00 0.00 100 1016.2
20260901072349 144 160 0.0 3.0 0.00 0.00 0.00 100 1016.2
20260901072119 144 168 0.0 2.0 0.00 0.00 0.00 100 1016.2
20260901071343 144 168 0.0 2.0 0.00 0.00 0.00 100 1016.2
20260901070829 144 132 0.0 3.0 0.00 0.00 0.00 100 1016.2
20260901070537 144 132 0.0 3.0 0.00 0.00 0.00 100 1016.2
20260901070015 145 129 0.0 4.0 0.00 0.00 0.00 100 1016.2
20260901065233 145 160 0.0 0.0 0.00 0.00 0.00 100 1016.1
20260901064730 145 160 0.0 6.0 0.00 0.00 0.00 100 1016.1
20260901064726 145 160 0.0 0.0 0.00 0.00 0.00 100 1016.1
20260901063717 145 160 0.0 6.0 0.00 0.00 0.00 100 1016.0
20260901063215 145 208 0.0 5.0 0.00 0.00 0.00 100 1016.0
20260901062702 145 112 0.0 6.0 0.00 0.00 0.00 100 1016.0
20260901062147 145 156 2.0 6.0 0.00 0.00 0.00 100 1016.0
20260901061647 145 154 0.0 8.0 0.00 0.00 0.00 100 1015.9
20260901061145 145 158 5.0 8.0 0.00 0.00 0.00 100 1015.9
20260901060642 145 151 2.0 7.0 0.00 0.00 0.00 100 1015.8
20260901060143 145 132 1.0 9.0 0.00 0.00 0.00 100 1015.8
20260901055613 145 105 4.0 10.0 0.00 0.00 0.00 100 1015.7
20260901055104 145 181 1.0 8.0 0.00 0.00 0.00 100 1015.7
20260901054559 145 164 4.0 8.0 0.00 0.00 0.00 100 1015.7
20260901054057 145 146 0.0 6.0 0.00 0.00 0.00 100 1015.6
20260901053540 145 158 3.0 6.0 0.00 0.00 0.00 100 1015.6
20260901053247 145 154 1.0 9.0 0.00 0.00 0.00 100 1015.6
20260901052510 145 105 0.0 9.0 0.00 0.00 0.00 100 1015.6
20260901052000 145 178 0.0 9.0 0.00 0.00 0.00 100 1015.6
20260901051459 145 149 6.0 9.0 0.00 0.00 0.00 100 1015.4
20260901050959 145 181 0.0 8.0 0.00 0.00 0.00 100 1015.4
20260901050456 145 149 2.0 8.0 0.00 0.00 0.00 100 1015.3
20260901050227 145 130 4.0 8.0 0.00 0.00 0.00 100 1015.3
20260901045457 145 161 5.0 8.0 0.00 0.00 0.00 100 1015.3
20260901044956 145 105 1.0 8.0 0.00 0.00 0.00 100 1015.2
20260901044455 145 175 2.0 8.0 0.00 0.00 0.00 100 1015.2
20260901043956 145 135 2.0 8.0 0.00 0.00 0.00 100 1015.2
20260901043456 145 153 2.0 8.0 0.00 0.00 0.00 100 1015.1
20260901042956 145 185 0.0 6.0 0.00 0.00 0.00 100 1015.1
20260901042457 145 130 2.0 9.0 0.00 0.00 0.00 100 1015.1
20260901041955 146 130 0.0 9.0 0.00 0.00 0.00 100 1015.1
20260901041456 146 154 4.0 9.0 0.00 0.00 0.00 100 1015.1
20260901040950 146 133 1.0 6.0 0.00 0.00 0.00 100 1015.1
20260901040442 146 140 0.0 8.0 0.00 0.00 0.00 100 1015.0
20260901035938 146 137 2.0 10.0 0.00 0.00 0.00 100 1015.0
20260901035434 146 163 0.0 10.0 0.00 0.00 0.00 100 1015.0
20260901034936 146 184 1.0 7.0 0.00 0.00 0.00 100 1015.1
20260901034433 146 157 3.0 9.0 0.00 0.00 0.00 100 1014.9
20260901033934 146 137 3.0 9.0 0.00 0.00 0.00 100 1015.0
20260901033436 146 92 0.0 10.0 0.00 0.00 0.00 100 1014.9
20260901033432 146 153 2.0 7.0 0.00 0.00 0.00 100 1015.0
20260901032426 146 92 3.0 11.0 0.00 0.00 0.00 100 1014.9
20260901031916 146 136 4.0 11.0 0.00 0.00 0.00 100 1014.8
20260901031647 146 157 2.0 10.0 0.00 0.00 0.00 100 1014.9
20260901030414 146 115 2.0 13.0 0.00 0.00 0.00 100 1014.7
20260901025857 146 146 5.0 8.0 0.00 0.00 0.00 100 1014.6
20260901025358 146 165 1.0 8.0 0.00 0.00 0.00 100 1014.5
20260901024855 146 149 2.0 7.0 0.00 0.00 0.00 100 1014.4
20260901024356 146 120 0.0 3.0 0.00 0.00 0.00 100 1014.3
20260901023849 146 102 0.0 0.0 0.00 0.00 0.00 100 1014.3
20260901023342 146 102 0.0 0.0 0.00 0.00 0.00 100 1014.2
20260901022838 146 102 0.0 0.0 0.00 0.00 0.00 100 1014.1
20260901022318 146 102 0.0 0.0 0.00 0.00 0.00 100 1014.0
20260901021754 146 102 0.0 0.0 0.00 0.00 0.00 100 1014.0
20260901021244 146 102 0.0 0.0 0.00 0.00 0.00 100 1013.9
20260901020743 146 102 0.0 1.0 0.00 0.00 0.00 100 1013.8
20260901020236 146 102 0.0 3.0 0.00 0.00 0.00 100 1013.8
20260901020232 146 132 1.0 3.0 0.00 0.00 0.00 100 1013.5
20260901015228 146 127 0.0 3.0 0.00 0.00 0.00 100 1013.5
20260901014714 146 127 0.0 0.0 0.00 0.00 0.00 100 1013.4
20260901014206 147 127 0.0 0.0 0.00 0.00 0.00 100 1013.3
20260901013705 146 127 0.0 0.0 0.00 0.00 0.00 100 1013.3
20260901013146 147 127 0.0 0.0 0.00 0.00 0.00 100 1013.3
20260901012624 147 127 0.0 0.0 0.00 0.00 0.00 100 1013.3
20260901012111 147 127 0.0 1.0 0.00 0.00 0.00 100 1013.3
20260901011603 147 127 0.0 3.0 0.00 0.00 0.00 100 1013.2
20260901011327 147 127 1.0 3.0 0.00 0.00 0.00 100 1013.2
20260901010551 147 132 0.0 1.0 0.00 0.00 0.00 100 1013.1
20260901010029 147 132 0.0 3.0 0.00 0.00 0.00 100 1013.1
20260901005743 147 70 0.0 0.0 0.00 0.00 0.00 100 1013.0
20260901005241 147 70 0.0 0.0 0.00 0.00 0.00 100 1013.0
20260901004455 147 70 0.0 0.0 0.00 0.00 0.00 100 1013.1
20260901003931 147 70 0.0 0.0 0.00 0.00 0.00 100 1013.1
20260901003412 148 70 0.0 0.0 0.00 0.00 0.00 100 1013.1
20260901002841 148 70 0.0 0.0 0.00 0.00 0.00 100 1013.0
20260901002551 148 70 0.0 4.0 0.00 0.00 0.00 100 1013.0
20260901001816 148 70 0.0 4.0 0.00 0.00 0.00 100 1012.9
20260901001314 148 149 0.0 0.0 0.00 0.00 0.00 100 1012.9
20260901001028 148 149 0.0 3.0 0.00 0.00 0.00 100 1012.8
20260901000243 148 149 1.0 4.0 0.00 0.00 0.00 100 1012.8
20260831235719 148 149 0.0 4.0 0.00 0.00 0.00 100 1012.8
20260831235434 148 142 0.0 7.0 0.00 0.00 0.00 100 1012.8
20260831234642 148 142 0.0 7.0 0.00 0.00 0.00 100 1012.8
20260831234116 148 116 0.0 6.0 0.00 0.00 0.00 100 1012.8
20260831233558 148 73 3.0 6.0 0.00 0.00 0.00 100 1012.8
20260831233330 149 358 2.0 9.0 0.00 0.00 0.00 100 1012.6
20260831232558 149 116 1.0 9.0 0.00 0.00 0.00 100 1012.8
20260831232035 149 116 2.0 8.0 0.00 0.00 0.00 100 1012.8
20260831231534 149 19 2.0 9.0 0.00 0.00 0.00 100 1012.8
20260831231033 149 125 2.0 9.0 0.00 0.00 0.00 100 1012.8
20260831230530 149 140 2.0 9.0 0.00 0.00 0.00 100 1012.9
20260831230030 149 57 0.0 4.0 0.00 0.00 0.00 100 1012.8
20260831225757 149 43 0.0 4.0 0.00 0.00 0.00 100 1012.8
20260831225002 149 59 0.0 4.0 0.00 0.00 0.00 100 1012.8
20260831224446 148 59 0.0 4.0 0.00 0.00 0.00 100 1012.8
20260831224213 148 59 0.0 2.0 0.00 0.00 0.00 100 1012.9
20260831223435 148 59 0.0 6.0 0.00 0.00 0.00 100 1013.0
20260831222928 148 59 0.0 6.0 0.00 0.00 0.00 100 1013.0
20260831222358 148 139 1.0 7.0 0.00 0.00 0.00 100 1013.0
20260831222346 149 120 4.0 7.0 0.00 0.00 0.00 100 1013.0
20260831221346 150 331 1.0 5.0 0.00 0.00 0.00 100 1013.0
20260831220844 149 129 0.0 1.0 0.00 0.00 0.00 100 1013.1
20260831220345 148 129 0.0 5.0 0.00 0.00 0.00 100 1013.0
20260831220107 148 129 0.0 6.0 0.00 0.00 0.00 100 1013.1
20260831215328 148 147 0.0 6.0 0.00 0.00 0.00 100 1013.2
20260831214827 148 158 0.0 5.0 0.00 0.00 0.00 100 1013.3
20260831214327 148 130 0.0 5.0 0.00 0.00 0.00 100 1013.3
20260831213825 148 29 1.0 6.0 0.00 0.00 0.00 100 1013.3
20260831213312 149 115 0.0 6.0 0.00 0.00 0.00 100 1013.4
20260831212756 149 165 3.0 9.0 0.00 0.00 0.00 100 1013.5
20260831212256 149 146 4.0 9.0 0.00 0.00 0.00 100 1013.5
20260831211756 149 119 4.0 8.0 0.00 0.00 0.00 100 1013.6
20260831211256 150 101 2.0 8.0 0.00 0.00 0.00 100 1013.6
20260831211026 150 158 0.0 6.0 0.00 0.00 0.00 100 1013.8
20260831210242 149 123 1.0 6.0 0.00 0.00 0.00 100 1013.9
20260831205740 150 108 4.0 6.0 0.00 0.00 0.00 100 1013.9
20260831205239 150 22 1.0 8.0 0.00 0.00 0.00 100 1014.0
20260831205000 149 139 1.0 8.0 0.00 0.00 0.00 100 1014.2
20260831204228 149 112 4.0 8.0 0.00 0.00 0.00 100 1014.3
20260831203724 150 143 0.0 6.0 0.00 0.00 0.00 100 1014.3
20260831203226 150 154 2.0 9.0 0.00 0.00 0.00 100 1014.5
20260831202717 149 191 4.0 9.0 0.00 0.00 0.00 100 1014.6
20260831202217 150 229 3.0 9.0 0.00 0.00 0.00 100 1014.6
20260831201947 149 115 4.0 9.0 0.00 0.00 0.00 100 1014.8
20260831201214 150 202 1.0 10.0 0.00 0.00 0.00 100 1014.8
20260831200715 149 167 5.0 11.0 0.00 0.00 0.00 100 1014.9
20260831200219 149 154 4.0 11.0 0.00 0.00 0.00 100 1015.1
20260831200215 149 136 4.0 11.0 0.00 0.00 0.00 100 1015.0
20260831195447 149 187 6.0 11.0 0.00 0.00 0.00 100 1015.2
20260831194711 149 112 0.0 9.0 0.00 0.00 0.00 100 1015.2
20260831194158 149 150 0.0 9.0 0.00 0.00 0.00 100 1015.3
20260831193928 148 144 6.0 10.0 0.00 0.00 0.00 100 1015.4
20260831193156 147 109 4.0 10.0 0.00 0.00 0.00 100 1015.4
20260831192657 149 225 0.0 7.0 0.00 0.00 0.00 100 1015.4
20260831192427 148 206 2.0 10.0 0.00 0.00 0.00 100 1015.7
20260831191657 148 151 5.0 10.0 0.00 0.00 0.00 100 1015.7